Torna al catalogo

STARLINK-30859

AttivoComunicazioniVLEO
NORAD 58371·PAYLOAD·🇺🇸 United States

Lanciato Nov 18, 2023 da Cape Canaveral Space Force Station

Loading…

Prossimi Passaggi (prossime 24 ore)

TLE

AggiornatoSource: CelesTrak SupGP

Epoca: Sep 15, 2026, 01:41 UTC

1 58371C 23177W   26258.07062500  .00006516  00000+0  23593-3 0  2587
2 58371  43.0026   1.4130 0001487 269.4455 193.3093 15.27584872    13

Traccia STARLINK-30859 in tempo reale con AllMySat

Download on the App Store